JBU8598 MYNN-KFLL

Flight info

Callsign JBU8598
Flight time 0h 45m
Altitude 26000
Route PEACH OLAHS3
Aircraft A320/M-SDE3FGHIRWY/LB1

Departure

Time 2026-05-04 20:52
Airport Lynden Pindling International Airport (MYNN)

Arrival

Time 2026-05-04 21:37
Airport Fort Lauderdale Hollywood International Airport (KFLL)
Time Latitude Longitude Altitude Speed Heading
2026-05-04 20:41 25.05058 -77.46935 12 ft 0 kts 20°
2026-05-04 20:45 25.05057 -77.46935 12 ft 1 kts 20°
2026-05-04 20:45 25.05035 -77.46944 14 ft 4 kts 17°
2026-05-04 20:45 25.05009 -77.46952 14 ft 4 kts
2026-05-04 20:46 25.04982 -77.46953 14 ft 4 kts 342°
2026-05-04 20:46 25.04969 -77.46945 14 ft 0 kts 314°
2026-05-04 20:49 25.04976 -77.46953 14 ft 4 kts 315°
2026-05-04 20:49 25.05015 -77.46996 12 ft 11 kts 315°
2026-05-04 20:49 25.05068 -77.47069 12 ft 13 kts 284°
2026-05-04 20:49 25.05056 -77.47150 12 ft 11 kts 278°
2026-05-04 20:50 25.05107 -77.47220 12 ft 13 kts 317°
2026-05-04 20:50 25.05177 -77.47296 13 ft 15 kts 315°
2026-05-04 20:50 25.05228 -77.47382 12 ft 13 kts 279°
2026-05-04 20:50 25.05203 -77.47479 14 ft 13 kts 246°
2026-05-04 20:51 25.05165 -77.47521 12 ft 8 kts 200°
2026-05-04 20:51 25.05111 -77.47483 12 ft 12 kts 136°
2026-05-04 20:51 25.04944 -77.47298 13 ft 68 kts 135°
2026-05-04 20:51 25.04460 -77.46762 13 ft 126 kts 135°
2026-05-04 20:52 25.03730 -77.45958 98 ft 163 kts 131°
2026-05-04 20:52 25.02938 -77.45086 741 ft 160 kts 132°
2026-05-04 20:52 25.02149 -77.44189 1207 ft 168 kts 136°
2026-05-04 20:52 25.01320 -77.43260 1619 ft 172 kts 135°
2026-05-04 20:53 25.00529 -77.42174 1829 ft 191 kts 123°
2026-05-04 20:53 24.99902 -77.40803 2095 ft 212 kts 110°
2026-05-04 20:53 24.99520 -77.39138 2385 ft 236 kts 97°
2026-05-04 20:53 24.99495 -77.37267 2645 ft 255 kts 82°
2026-05-04 20:54 24.99959 -77.35308 2849 ft 274 kts 66°
2026-05-04 20:54 25.00952 -77.33503 3340 ft 277 kts 47°
2026-05-04 20:54 25.02383 -77.32096 4219 ft 276 kts 32°
2026-05-04 20:54 25.04088 -77.31119 5128 ft 278 kts 17°
2026-05-04 20:55 25.05957 -77.30704 5979 ft 278 kts 358°
2026-05-04 20:55 25.07903 -77.30933 6894 ft 279 kts 341°
2026-05-04 20:55 25.09661 -77.31754 7746 ft 279 kts 326°
2026-05-04 20:55 25.11167 -77.33079 8623 ft 276 kts 310°
2026-05-04 20:56 25.12378 -77.34718 9474 ft 277 kts 306°
2026-05-04 20:56 25.13584 -77.36391 10257 ft 282 kts 306°
2026-05-04 20:56 25.14876 -77.38145 10506 ft 305 kts 307°
2026-05-04 20:56 25.16255 -77.40017 10861 ft 321 kts 306°
2026-05-04 20:57 25.17663 -77.41950 11505 ft 325 kts 306°
2026-05-04 20:57 25.19084 -77.43905 12230 ft 327 kts 306°
2026-05-04 20:57 25.20515 -77.45868 12972 ft 329 kts 305°
2026-05-04 20:57 25.21953 -77.47840 13725 ft 331 kts 305°
2026-05-04 20:58 25.23400 -77.49827 14379 ft 333 kts 305°
2026-05-04 20:58 25.24855 -77.51835 14971 ft 336 kts 304°
2026-05-04 20:58 25.26323 -77.53859 15533 ft 340 kts 304°
2026-05-04 20:58 25.27807 -77.55916 16085 ft 343 kts 304°
2026-05-04 20:59 25.29292 -77.57994 16654 ft 347 kts 304°
2026-05-04 20:59 25.30779 -77.60120 17218 ft 351 kts 303°
2026-05-04 20:59 25.32245 -77.62250 17763 ft 354 kts 303°
2026-05-04 20:59 25.33744 -77.64426 18318 ft 358 kts 303°
2026-05-04 21:00 25.35280 -77.66617 18804 ft 362 kts 303°
2026-05-04 21:00 25.36848 -77.68812 19316 ft 365 kts 304°
2026-05-04 21:00 25.38442 -77.71023 19839 ft 368 kts 304°
2026-05-04 21:00 25.40041 -77.73237 20366 ft 370 kts 304°
2026-05-04 21:01 25.41637 -77.75490 20901 ft 372 kts 301°
2026-05-04 21:01 25.42919 -77.77959 21409 ft 370 kts 290°
2026-05-04 21:01 25.43730 -77.80651 21936 ft 369 kts 281°
2026-05-04 21:01 25.44318 -77.83424 22454 ft 371 kts 281°
2026-05-04 21:02 25.44922 -77.86220 22963 ft 374 kts 281°
2026-05-04 21:02 25.45535 -77.89024 23452 ft 377 kts 281°
2026-05-04 21:02 25.46155 -77.91858 23863 ft 380 kts 281°
2026-05-04 21:02 25.46781 -77.94714 24282 ft 382 kts 281°
2026-05-04 21:03 25.47402 -77.97542 24703 ft 383 kts 281°
2026-05-04 21:03 25.48038 -78.00411 25136 ft 385 kts 281°
2026-05-04 21:03 25.48674 -78.03292 25554 ft 386 kts 281°
2026-05-04 21:03 25.49305 -78.06184 25886 ft 388 kts 281°
2026-05-04 21:04 25.49935 -78.09078 25972 ft 384 kts 281°
2026-05-04 21:04 25.50557 -78.11939 25984 ft 380 kts 281°
2026-05-04 21:04 25.51172 -78.14777 25988 ft 379 kts 281°
2026-05-04 21:04 25.51786 -78.17620 25985 ft 378 kts 281°
2026-05-04 21:05 25.52395 -78.20445 25988 ft 378 kts 281°
2026-05-04 21:05 25.53004 -78.23270 25986 ft 378 kts 281°
2026-05-04 21:05 25.53618 -78.26104 25990 ft 378 kts 281°
2026-05-04 21:05 25.54235 -78.28930 25988 ft 377 kts 281°
2026-05-04 21:06 25.54852 -78.31751 25988 ft 377 kts 281°
2026-05-04 21:06 25.55470 -78.34584 25989 ft 378 kts 281°
2026-05-04 21:06 25.56090 -78.37413 25990 ft 378 kts 281°
2026-05-04 21:06 25.56708 -78.40237 25991 ft 378 kts 281°
2026-05-04 21:07 25.57325 -78.43070 25993 ft 378 kts 281°
2026-05-04 21:07 25.57939 -78.45898 25996 ft 378 kts 281°
2026-05-04 21:07 25.58547 -78.48697 25978 ft 376 kts 281°
2026-05-04 21:07 25.59150 -78.51479 25729 ft 368 kts 281°
2026-05-04 21:08 25.59741 -78.54208 25432 ft 361 kts 281°
2026-05-04 21:08 25.60322 -78.56898 25040 ft 359 kts 281°
2026-05-04 21:08 25.60902 -78.59582 24642 ft 357 kts 281°
2026-05-04 21:08 25.61479 -78.62251 24234 ft 355 kts 281°
2026-05-04 21:09 25.62052 -78.64908 23840 ft 354 kts 281°
2026-05-04 21:09 25.62623 -78.67558 23422 ft 352 kts 281°
2026-05-04 21:09 25.63183 -78.70153 22994 ft 349 kts 281°
2026-05-04 21:09 25.63753 -78.72788 22570 ft 345 kts 281°
2026-05-04 21:10 25.64300 -78.75328 22179 ft 342 kts 281°
2026-05-04 21:10 25.64850 -78.77883 21707 ft 340 kts 281°
2026-05-04 21:10 25.65398 -78.80424 21254 ft 337 kts 281°
2026-05-04 21:10 25.65939 -78.82941 20795 ft 335 kts 281°
2026-05-04 21:11 25.66477 -78.85449 20343 ft 333 kts 281°
2026-05-04 21:11 25.67009 -78.87935 19883 ft 331 kts 281°
2026-05-04 21:11 25.67541 -78.90418 19416 ft 329 kts 281°
2026-05-04 21:11 25.68067 -78.92882 18962 ft 328 kts 281°
2026-05-04 21:12 25.68591 -78.95331 18503 ft 326 kts 281°
2026-05-04 21:12 25.69114 -78.97782 18009 ft 325 kts 281°
2026-05-04 21:12 25.69630 -79.00208 17575 ft 321 kts 281°
2026-05-04 21:12 25.70136 -79.02585 17088 ft 320 kts 281°
2026-05-04 21:13 25.70650 -79.05003 16628 ft 317 kts 281°
2026-05-04 21:13 25.71154 -79.07371 16191 ft 314 kts 281°
2026-05-04 21:13 25.71652 -79.09714 15743 ft 312 kts 281°
2026-05-04 21:13 25.72149 -79.12056 15301 ft 310 kts 281°
2026-05-04 21:14 25.72640 -79.14375 14863 ft 308 kts 281°
2026-05-04 21:14 25.73128 -79.16684 14429 ft 306 kts 281°
2026-05-04 21:14 25.73607 -79.18948 13998 ft 305 kts 281°
2026-05-04 21:14 25.74097 -79.21265 13534 ft 304 kts 281°
2026-05-04 21:15 25.74577 -79.23529 13091 ft 301 kts 281°
2026-05-04 21:15 25.75048 -79.25753 12668 ft 298 kts 281°
2026-05-04 21:15 25.75521 -79.27982 12253 ft 296 kts 281°
2026-05-04 21:15 25.76024 -79.30215 11840 ft 294 kts 283°
2026-05-04 21:16 25.76576 -79.32373 11425 ft 293 kts 284°
2026-05-04 21:16 25.77161 -79.34539 11011 ft 292 kts 285°
2026-05-04 21:16 25.77750 -79.36689 10608 ft 291 kts 285°
2026-05-04 21:16 25.78338 -79.38838 10241 ft 289 kts 285°
2026-05-04 21:17 25.78908 -79.40934 10123 ft 278 kts 285°
2026-05-04 21:17 25.79452 -79.42962 9934 ft 271 kts 285°
2026-05-04 21:17 25.79981 -79.44952 9794 ft 270 kts 285°
2026-05-04 21:17 25.80507 -79.46948 9389 ft 270 kts 285°
2026-05-04 21:18 25.81033 -79.48947 9002 ft 270 kts 285°
2026-05-04 21:18 25.81558 -79.50947 8626 ft 270 kts 285°
2026-05-04 21:18 25.82082 -79.52951 8241 ft 271 kts 285°
2026-05-04 21:18 25.82610 -79.54961 7861 ft 271 kts 285°
2026-05-04 21:19 25.83140 -79.56975 7473 ft 272 kts 285°
2026-05-04 21:19 25.83669 -79.58987 7135 ft 270 kts 285°
2026-05-04 21:19 25.84298 -79.60951 6772 ft 271 kts 292°
2026-05-04 21:19 25.85038 -79.62881 6364 ft 273 kts 292°
2026-05-04 21:20 25.85771 -79.64803 6114 ft 268 kts 293°
2026-05-04 21:20 25.86531 -79.66657 5986 ft 261 kts 295°
2026-05-04 21:20 25.87318 -79.68482 5991 ft 265 kts 295°
2026-05-04 21:20 25.88118 -79.70314 5991 ft 267 kts 295°
2026-05-04 21:21 25.88930 -79.72172 5995 ft 265 kts 295°
2026-05-04 21:21 25.89735 -79.74027 6002 ft 265 kts 296°
2026-05-04 21:21 25.90535 -79.75891 6000 ft 269 kts 296°
2026-05-04 21:21 25.91332 -79.77759 6000 ft 272 kts 296°
2026-05-04 21:22 25.92148 -79.79676 5997 ft 271 kts 296°
2026-05-04 21:22 25.92955 -79.81570 5999 ft 272 kts 295°
2026-05-04 21:22 25.93761 -79.83466 6000 ft 271 kts 295°
2026-05-04 21:22 25.94558 -79.85344 6001 ft 272 kts 295°
2026-05-04 21:23 25.95364 -79.87239 6003 ft 272 kts 295°
2026-05-04 21:23 25.96171 -79.89132 6004 ft 270 kts 296°
2026-05-04 21:23 25.96973 -79.91015 6004 ft 269 kts 296°
2026-05-04 21:23 25.97772 -79.92894 6003 ft 269 kts 295°
2026-05-04 21:24 25.98591 -79.94766 6002 ft 269 kts 300°
2026-05-04 21:24 25.99314 -79.95916 6004 ft 270 kts 310°
2026-05-04 21:24 26.00574 -79.97463 6006 ft 269 kts 312°
2026-05-04 21:24 26.01810 -79.98980 6000 ft 268 kts 312°
2026-05-04 21:25 26.03487 -80.01053 6001 ft 269 kts 311°
2026-05-04 21:25 26.04334 -80.02100 6000 ft 270 kts 311°
2026-05-04 21:25 26.05573 -80.03630 6001 ft 270 kts 312°
2026-05-04 21:25 26.06831 -80.05189 6000 ft 270 kts 311°
2026-05-04 21:26 26.08082 -80.06740 6003 ft 270 kts 311°
2026-05-04 21:26 26.09338 -80.08296 6001 ft 269 kts 311°
2026-05-04 21:26 26.10587 -80.09838 6002 ft 269 kts 311°
2026-05-04 21:26 26.11841 -80.11388 5999 ft 269 kts 312°
2026-05-04 21:27 26.13090 -80.12934 5998 ft 269 kts 311°
2026-05-04 21:27 26.14223 -80.14597 6017 ft 271 kts 298°
2026-05-04 21:27 26.14894 -80.16551 5974 ft 271 kts 282°
2026-05-04 21:27 26.15046 -80.18627 5854 ft 269 kts 270°
2026-05-04 21:28 26.15043 -80.20717 5743 ft 271 kts 270°
2026-05-04 21:28 26.15047 -80.22815 5632 ft 271 kts 271°
2026-05-04 21:28 26.15055 -80.24917 5526 ft 271 kts 271°
2026-05-04 21:28 26.15065 -80.27016 5414 ft 272 kts 271°
2026-05-04 21:29 26.15075 -80.29117 5305 ft 272 kts 271°
2026-05-04 21:29 26.15084 -80.31225 5193 ft 271 kts 271°
2026-05-04 21:29 26.15092 -80.33301 5083 ft 265 kts 271°
2026-05-04 21:29 26.15092 -80.35323 4958 ft 257 kts 271°
2026-05-04 21:30 26.15075 -80.37281 4805 ft 249 kts 270°
2026-05-04 21:30 26.14891 -80.39165 4633 ft 243 kts 249°
2026-05-04 21:30 26.13950 -80.40640 4563 ft 231 kts 217°
2026-05-04 21:30 26.12557 -80.41374 4452 ft 218 kts 191°
2026-05-04 21:31 26.09738 -80.40913 4041 ft 194 kts 146°
2026-05-04 21:31 26.08737 -80.39993 3918 ft 182 kts 127°
2026-05-04 21:31 26.08090 -80.38836 3768 ft 172 kts 108°
2026-05-04 21:32 26.07806 -80.37586 3597 ft 164 kts 90°
2026-05-04 21:32 26.07787 -80.36340 3398 ft 158 kts 87°
2026-05-04 21:32 26.07782 -80.35137 3202 ft 153 kts 87°
2026-05-04 21:32 26.07778 -80.33972 3014 ft 150 kts 87°
2026-05-04 21:33 26.07773 -80.32800 2816 ft 152 kts 87°
2026-05-04 21:33 26.07768 -80.31620 2613 ft 153 kts 87°
2026-05-04 21:33 26.07763 -80.30447 2417 ft 150 kts 87°
2026-05-04 21:33 26.07757 -80.29325 2234 ft 141 kts 86°
2026-05-04 21:34 26.07752 -80.28263 2053 ft 135 kts 86°
2026-05-04 21:34 26.07747 -80.27220 1879 ft 133 kts 85°
2026-05-04 21:34 26.07743 -80.26212 1708 ft 133 kts 85°
2026-05-04 21:34 26.07738 -80.25185 1525 ft 132 kts 86°
2026-05-04 21:35 26.07733 -80.24162 1344 ft 132 kts 86°
2026-05-04 21:35 26.07728 -80.23140 1175 ft 132 kts 86°
2026-05-04 21:35 26.07723 -80.22121 1001 ft 131 kts 86°
2026-05-04 21:35 26.07718 -80.21114 823 ft 131 kts 85°
2026-05-04 21:36 26.07715 -80.20085 650 ft 133 kts 86°
2026-05-04 21:36 26.07709 -80.19069 477 ft 132 kts 87°
2026-05-04 21:36 26.07709 -80.18058 383 ft 132 kts 90°
2026-05-04 21:36 26.07703 -80.17033 149 ft 130 kts 90°
2026-05-04 21:37 26.07691 -80.16054 27 ft 117 kts 90°
2026-05-04 21:37 26.07688 -80.15420 18 ft 40 kts 89°
2026-05-04 21:37 26.07683 -80.15309 18 ft 9 kts 94°
2026-05-04 21:37 26.07682 -80.15233 17 ft 13 kts 90°
2026-05-04 21:38 26.07648 -80.15132 16 ft 15 kts 161°
2026-05-04 21:38 26.07552 -80.15122 18 ft 13 kts 175°
2026-05-04 21:38 26.07492 -80.15088 20 ft 9 kts 116°
2026-05-04 21:38 26.07466 -80.15033 22 ft 8 kts 122°
2026-05-04 21:39 26.07433 -80.14984 20 ft 8 kts 127°
2026-05-04 21:39 26.07397 -80.14931 20 ft 9 kts 127°
2026-05-04 21:39 26.07373 -80.14871 21 ft 8 kts 112°
2026-05-04 21:39 26.07357 -80.14816 22 ft 7 kts 104°
2026-05-04 21:40 26.07345 -80.14773 22 ft 3 kts 108°
2026-05-04 21:40 26.07342 -80.14761 22 ft 1 kts 105°
2026-05-04 21:40 26.07339 -80.14751 22 ft 0 kts 106°